Home > Weather > Hangzhou > Past weeks

Flag for China Weather for the Past 2 Weeks in Hangzhou, Zhejiang, China

Now
70 °F

Clear.


Feels Like: 70 °F
Forecast: 67 / 81 °F
Wind: 3 mph from Southeast

Location: Hangzhou Airport

Current Time: May 2, 2016 at 6:01:58 AM

Latest Report: May 2, 2016 at 5:00 AM


Visibility: 10 mi

Pressure: 29.74 "Hg

Humidity: 83%

Dew Point: 64 °F

Location of HangzhouLocation

Historic Weather in Hangzhou — Graph

°F

Hangzhou Temperature Yesterday

Maximum temperature yesterday: 88 °F (at 12:30 PM)
Minimum temperature yesterday: 59 °F (at 5:00 AM)
Average temperature yesterday: 75 °F

High & Low Weather Summary for the Past Weeks

 TemperatureHumidityPressure
High88 °F (May 1, 12:30 PM)100% (Apr 20, 1:00 PM)30.18 "Hg (Apr 20, 1:00 PM)
Low54 °F (Apr 19, 2:30 AM)23% (Apr 19, 3:30 PM)29.71 "Hg (Apr 21, 3:30 AM)
Average65 °F77%29.91 "Hg
* Reported Apr 17 4:00 AM — May 2 4:30 AM, Hangzhou, Weather by CustomWeather, © 2016

Note: Actual official high and low records may vary slightly from our data, if they occured in-between our weather recording intervals... More about our weather records

Advertising

Hangzhou Weather History for the Previous 24 Hours

Scroll right to see more
 ConditionsComfort  
Time TempWeatherWind HumidityBarometerVisibility
4:30 AM
Mon, May 2
70 °FClear.3 mph83%29.71 "Hg10 mi
4:00 AM72 °FClear.6 mph78%29.71 "Hg10 mi
3:30 AM73 °FClear.3 mph74%29.74 "Hg10 mi
3:00 AM73 °FClear.3 mph74%29.71 "Hg10 mi
2:30 AM73 °FPassing clouds.3 mph74%29.71 "HgN/A
2:00 AM73 °FClear.No wind74%29.74 "Hg10 mi
1:30 AM73 °FClear.1 mph74%29.74 "Hg10 mi
1:00 AM73 °FClear.1 mph74%29.74 "Hg10 mi
12:30 AM75 °FClear.3 mph69%29.74 "Hg10 mi
12:00 AM75 °FClear.3 mph69%29.74 "Hg10 mi
11:30 PM
Sun, May 1
75 °FPassing clouds.3 mph69%29.74 "HgN/A
11:00 PM77 °FPassing clouds.3 mph65%29.77 "HgN/A
10:30 PM77 °FClear.1 mph65%29.77 "Hg10 mi
10:00 PM79 °FClear.3 mph61%29.77 "Hg10 mi
9:30 PM79 °FClear.6 mph61%29.77 "Hg10 mi
9:00 PM77 °FClear.3 mph69%29.77 "Hg10 mi
8:30 PM75 °FClear.1 mph74%29.74 "Hg10 mi
8:00 PM79 °FClear.1 mph65%29.74 "Hg10 mi
7:30 PM79 °FClear.3 mph65%29.74 "Hg10 mi
7:00 PM79 °FClear.3 mph61%29.74 "Hg10 mi
6:30 PM81 °FSunny.3 mph58%29.74 "Hg10 mi
6:00 PM81 °FSunny.6 mph58%29.74 "Hg10 mi
5:30 PM82 °FSunny.6 mph55%29.71 "Hg10 mi
5:00 PM84 °FSunny.6 mph48%29.71 "Hg10 mi
4:30 PM84 °FSunny.8 mph45%29.71 "Hg10 mi
4:00 PM84 °FSunny.8 mph43%29.74 "Hg10 mi
3:00 PM88 °FPassing clouds.6 mph40%29.74 "HgN/A
2:30 PM88 °FPassing clouds.8 mph40%29.74 "HgN/A
2:00 PM88 °FSunny.6 mph40%29.77 "Hg10 mi
1:30 PM86 °FPassing clouds.6 mph38%29.77 "HgN/A
12:30 PM88 °FSunny.3 mph35%29.80 "Hg10 mi
12:00 PM86 °FPassing clouds.6 mph40%29.80 "HgN/A
11:00 AM86 °FSunny.1 mph35%29.83 "Hg10 mi
10:30 AM84 °FPassing clouds.3 mph43%29.86 "HgN/A
10:00 AM81 °FSunny.3 mph45%29.86 "Hg10 mi
9:30 AM79 °FClear.1 mph48%29.86 "Hg5 mi
9:00 AM77 °FClear.1 mph54%29.86 "Hg4 mi
8:30 AM75 °FClear.No wind61%29.86 "Hg4 mi
8:00 AM72 °FClear.No wind69%29.89 "Hg4 mi
7:30 AM70 °FClear.No wind73%29.89 "Hg4 mi
7:00 AM68 °FClear.No wind73%29.86 "Hg4 mi
6:30 AM64 °FClear.No wind88%29.86 "Hg4 mi
6:00 AM61 °FClear.No wind88%29.86 "Hg4 mi
Weather by CustomWeather, © 2016

See weather overviewHow to use our weather pages